This is the latest recevied weather packets stored in our database for station/object KN6CW-3. If no packets are shown the sender has not sent any weather packets the latest 10 day(s).
| Time | Temp. | Humidity | Pressure | Rain* | Wind** | Luminosity | Snow |
|---|---|---|---|---|---|---|---|
| 1778021680 | 22.78° C | 41% | 1007 hPa | 0 mm | - | 7 W/m² | - |
| 1778021380 | 22.78° C | 41% | 1007 hPa | 0 mm | - | 9 W/m² | - |
| 1778021080 | 22.78° C | 41% | 1006.9 hPa | 0 mm | - | 18 W/m² | - |
| 1778020780 | 22.78° C | 41% | 1006.8 hPa | 0 mm | - | 37 W/m² | - |
| 1778020479 | 22.78° C | 40% | 1006.7 hPa | 0 mm | - | 58 W/m² | - |
| 1778019879 | 22.78° C | 40% | 1006.8 hPa | 0 mm | - | 65 W/m² | - |
| 1778019578 | 22.78° C | 41% | 1006.9 hPa | 0 mm | - | 40 W/m² | - |
| 1778019278 | 22.78° C | 41% | 1006.7 hPa | 0 mm | - | 49 W/m² | - |
| 1778018978 | 22.78° C | 41% | 1006.7 hPa | 0 mm | - | 67 W/m² | - |
| 1778018677 | 23.33° C | 41% | 1006.9 hPa | 0 mm | - | 79 W/m² | - |
| 1778018378 | 23.33° C | 40% | 1006.7 hPa | 0 mm | - | 125 W/m² | - |
| 1778018077 | 22.78° C | 41% | 1006.6 hPa | 0 mm | - | 109 W/m² | - |
| 1778017777 | 22.78° C | 40% | 1006.7 hPa | 0 mm | - | 79 W/m² | - |
| 1778017476 | 22.78° C | 40% | 1006.7 hPa | 0 mm | - | 102 W/m² | - |
| 1778016876 | 22.78° C | 42% | 1006.7 hPa | 0 mm | - | 90 W/m² | - |
| 1778016575 | 22.78° C | 43% | 1006.7 hPa | 0 mm | - | 86 W/m² | - |
| 1778016275 | 23.33° C | 44% | 1006.6 hPa | 0 mm | - | 69 W/m² | - |
| 1778015975 | 23.33° C | 44% | 1006.5 hPa | 0 mm | - | 91 W/m² | - |
| 1778015675 | 23.33° C | 41% | 1006.5 hPa | 0 mm | - | 105 W/m² | - |
| 1778015375 | 23.89° C | 40% | 1006.6 hPa | 0 mm | - | 135 W/m² | - |
| 1778015074 | 23.89° C | 40% | 1006.5 hPa | 0 mm | - | 162 W/m² | - |
| 1778014774 | 24.44° C | 40% | 1006.4 hPa | 0 mm | - | 197 W/m² | - |
| 1778014173 | 24.44° C | 41% | 1006.5 hPa | 0 mm | - | 367 W/m² | - |
| 1778013873 | 24.44° C | 39% | 1006.4 hPa | 0 mm | - | 336 W/m² | - |
| 1778013572 | 24.44° C | 39% | 1006.6 hPa | 0 mm | - | 475 W/m² | - |
* Rain latest hour (hover to see other rain measurements)
** Current wind speed in m/s (hover to see current wind gust speed)